This is the latest recevied weather packets stored in our database for station/object IK2YOU-3. If no packets are shown the sender has not sent any weather packets the latest 1 day(s).
| Time | Temp. | Humidity | Pressure | Rain* | Wind** | Luminosity | Snow |
|---|---|---|---|---|---|---|---|
| 1778007844 | 15° C | 76% | 1009.9 hPa | 0 mm | 0.45 m/s, 122° | 0 W/m² | - |
| 1778007373 | 15° C | 75% | 1009.8 hPa | 0 mm | 0.45 m/s, 95° | 0 W/m² | - |
| 1778006645 | 15° C | 75% | 1009.9 hPa | 0 mm | 0.45 m/s, 90° | 0 W/m² | - |
| 1778006044 | 15° C | 75% | 1009.9 hPa | 0 mm | 0.45 m/s, 80° | 0 W/m² | - |
| 1778005571 | 15° C | 75% | 1009.8 hPa | 0 mm | 0.45 m/s, 64° | 0 W/m² | - |
| 1778004845 | 15° C | 75% | 1009.8 hPa | 0 mm | 0.45 m/s, 58° | 0 W/m² | - |
| 1778004244 | 15° C | 75% | 1009.8 hPa | 0 mm | 0.45 m/s, 58° | 0 W/m² | - |
| 1778003643 | 15° C | 75% | 1009.8 hPa | 0 mm | 0.45 m/s, 54° | 4 W/m² | - |
| 1778003043 | 15° C | 75% | 1009.8 hPa | 0 mm | 0.45 m/s, 54° | 6 W/m² | - |
| 1778002444 | 15° C | 75% | 1009.9 hPa | 0 mm | 0 m/s | 0 W/m² | - |
| 1778001843 | 15° C | 75% | 1009.8 hPa | 0 mm | 0 m/s | 6 W/m² | - |
| 1778001243 | 15° C | 76% | 1009.8 hPa | 0 mm | 0 m/s | 3 W/m² | - |
| 1778000643 | 15° C | 76% | 1009.8 hPa | 0 mm | 0.45 m/s, 99° | 7 W/m² | - |
| 1778000044 | 15° C | 76% | 1009.8 hPa | 0 mm | 0.45 m/s, 103° | 14 W/m² | - |
| 1777999443 | 15° C | 76% | 1009.9 hPa | 0 mm | 0.45 m/s, 61° | 11 W/m² | - |
| 1777998844 | 15° C | 76% | 1010 hPa | 0 mm | 0.45 m/s, 105° | 19 W/m² | - |
| 1777998244 | 15° C | 76% | 1010 hPa | 0 mm | 0.45 m/s, 110° | 19 W/m² | - |
| 1777997773 | 15° C | 76% | 1010 hPa | 0 mm | 0.89 m/s, 99° | 10 W/m² | - |
| 1777997174 | 15° C | 76% | 1010.1 hPa | 0.25 mm | 0.45 m/s, 98° | 14 W/m² | - |
| 1777996444 | 15° C | 76% | 1010.1 hPa | 0.25 mm | 0.89 m/s, 94° | 26 W/m² | - |
| 1777995843 | 15° C | 76% | 1010.1 hPa | 0.25 mm | 0.89 m/s, 88° | 14 W/m² | - |
| 1777995244 | 14.44° C | 76% | 1010.2 hPa | 0.25 mm | 1.34 m/s, 94° | 12 W/m² | - |
| 1777994643 | 14.44° C | 76% | 1010.2 hPa | 0.25 mm | 1.34 m/s, 92° | 12 W/m² | - |
| 1777994045 | 15° C | 76% | 1010.1 hPa | 0.25 mm | 1.34 m/s, 82° | 11 W/m² | - |
| 1777993575 | 15° C | 76% | 1010.2 hPa | 0 mm | 0.89 m/s, 104° | 13 W/m² | - |
* Rain latest hour (hover to see other rain measurements)
** Current wind speed in m/s (hover to see current wind gust speed)